When you browse on this site, cookies collect data to enhance your experience and personalize the content and advertising you see.
Visit our Privacy Policy to learn more. By continuing to use the site, you agree to this use of cookies and data.
  • In Österreich
  • Länderverzeichnis
  • Für 7 Tage
  • Wassertemperatur
  • Satellitenkarten
  • Wetterkarte
  • News
  • Widgets
  • user-avatar
    Anmelden

    Stündliche Wetter Starkville

    Heute, 22 April, Montag

    Zeit Temperatur Niederschläge Wind Luftdruck Luftfeuchtigkeit
    00:00 +15°C° 0 mm 2 m/S 755 mmHg 72%
    01:00 +15°C° 0 mm 2 m/S 755 mmHg 74%
    02:00 +14°C° 0 mm 2 m/S 756 mmHg 76%
    03:00 +13°C° 0 mm 1 m/S 756 mmHg 79%
    04:00 +13°C° 0 mm 1 m/S 756 mmHg 79%
    05:00 +13°C° 0 mm 1 m/S 756 mmHg 80%
    06:00 +13°C° 0 mm 1 m/S 757 mmHg 80%
    07:00 +16°C° 0 mm 1 m/S 757 mmHg 71%
    08:00 +20°C° 0 mm 1 m/S 757 mmHg 62%
    09:00 +23°C° 0 mm 1 m/S 757 mmHg 54%
    10:00 +24°C° 0 mm 2 m/S 757 mmHg 50%
    11:00 +26°C° 0 mm 2 m/S 757 mmHg 47%
    12:00 +27°C° 0 mm 3 m/S 757 mmHg 44%
    13:00 +28°C° 0 mm 3 m/S 756 mmHg 44%
    14:00 +28°C° 0 mm 3 m/S 756 mmHg 44%
    15:00 +29°C° 0 mm 3 m/S 755 mmHg 43%
    16:00 +27°C° 0 mm 2 m/S 755 mmHg 51%
    17:00 +25°C° 0 mm 2 m/S 755 mmHg 58%
    18:00 +23°C° 0 mm 1 m/S 755 mmHg 65%
    19:00 +22°C° 0 mm 1 m/S 755 mmHg 68%
    20:00 +20°C° 0 mm 1 m/S 755 mmHg 70%
    21:00 +19°C° 0 mm 1 m/S 756 mmHg 73%
    22:00 +18°C° 0 mm 1 m/S 755 mmHg 74%
    23:00 +18°C° 0 mm 1 m/S 755 mmHg 76%

    Morgen, 23 April, Dienstag

    Zeit Temperatur Niederschläge Wind Luftdruck Luftfeuchtigkeit
    00:00 +16°C° 0 mm 1 m/S 755 mmHg 77%
    01:00 +16°C° 0 mm 1 m/S 755 mmHg 78%
    02:00 +16°C° 0 mm 1 m/S 755 mmHg 79%
    03:00 +15°C° 0 mm 1 m/S 755 mmHg 80%
    04:00 +15°C° 0 mm 1 m/S 755 mmHg 79%
    05:00 +15°C° 0 mm 1 m/S 755 mmHg 78%
    06:00 +15°C° 0 mm 1 m/S 755 mmHg 77%
    07:00 +18°C° 0 mm 1 m/S 756 mmHg 69%
    08:00 +20°C° 0 mm 1 m/S 756 mmHg 62%
    09:00 +22°C° 0 mm 1 m/S 756 mmHg 54%
    10:00 +24°C° 0 mm 2 m/S 756 mmHg 50%
    11:00 +25°C° 0 mm 2 m/S 756 mmHg 46%
    12:00 +27°C° 0 mm 3 m/S 755 mmHg 42%
    13:00 +27°C° 0 mm 3 m/S 755 mmHg 43%
    14:00 +27°C° 0 mm 2 m/S 754 mmHg 43%
    15:00 +27°C° 0 mm 2 m/S 753 mmHg 44%
    16:00 +26°C° 0 mm 2 m/S 753 mmHg 51%
    17:00 +24°C° 0 mm 2 m/S 753 mmHg 58%
    18:00 +23°C° 0 mm 1 m/S 753 mmHg 66%
    19:00 +21°C° 0 mm 1 m/S 753 mmHg 68%
    20:00 +20°C° 0 mm 1 m/S 753 mmHg 71%
    21:00 +19°C° 0 mm 1 m/S 753 mmHg 73%
    22:00 +18°C° 0 mm 1 m/S 753 mmHg 76%
    23:00 +18°C° 0 mm 1 m/S 753 mmHg 78%

    übermorgen, 24 April, Mittwoch

    Zeit Temperatur Niederschläge Wind Luftdruck Luftfeuchtigkeit
    00:00 +16°C° 0 mm 1 m/S 753 mmHg 81%
    01:00 +16°C° 0 mm 1 m/S 753 mmHg 84%
    02:00 +15°C° 0 mm 1 m/S 753 mmHg 87%
    03:00 +15°C° 0 mm 1 m/S 753 mmHg 90%
    04:00 +15°C° 0 mm 1 m/S 753 mmHg 90%
    05:00 +15°C° 0 mm 1 m/S 753 mmHg 90%
    06:00 +15°C° 0 mm 1 m/S 753 mmHg 90%
    07:00 +19°C° 0 mm 1 m/S 753 mmHg 83%
    08:00 +22°C° 0 mm 1 m/S 753 mmHg 75%
    09:00 +24°C° 0 mm 2 m/S 754 mmHg 67%
    10:00 +26°C° 0 mm 2 m/S 753 mmHg 61%
    11:00 +27°C° 0 mm 2 m/S 753 mmHg 55%
    12:00 +29°C° 0 mm 2 m/S 753 mmHg 50%
    13:00 +29°C° 0 mm 2 m/S 752 mmHg 49%
    14:00 +30°C° 0 mm 2 m/S 751 mmHg 49%
    15:00 +30°C° 0 mm 3 m/S 750 mmHg 48%
    16:00 +28°C° 0 mm 2 m/S 750 mmHg 55%
    17:00 +27°C° 0 mm 2 m/S 750 mmHg 62%
    18:00 +25°C° 0 mm 2 m/S 750 mmHg 69%
    19:00 +24°C° 0 mm 2 m/S 750 mmHg 70%
    20:00 +23°C° 0 mm 2 m/S 751 mmHg 71%
    21:00 +22°C° 0 mm 1 m/S 751 mmHg 72%
    22:00 +21°C° 0 mm 2 m/S 751 mmHg 76%
    23:00 +20°C° 0 mm 2 m/S 751 mmHg 80%

    25 April, Donnerstag

    Zeit Temperatur Niederschläge Wind Luftdruck Luftfeuchtigkeit
    00:00 +19°C° 0 mm 2 m/S 751 mmHg 84%
    01:00 +18°C° 0 mm 2 m/S 751 mmHg 87%
    02:00 +18°C° 0 mm 2 m/S 750 mmHg 91%
    03:00 +17°C° 0 mm 2 m/S 750 mmHg 95%
    04:00 +19°C° 0 mm 1 m/S 750 mmHg 94%
    05:00 +19°C° 0 mm 1 m/S 751 mmHg 92%
    06:00 +19°C° 0 mm 1 m/S 751 mmHg 91%
    07:00 +21°C° 0 mm 1 m/S 751 mmHg 85%
    08:00 +21°C° 0 mm 2 m/S 751 mmHg 80%
    09:00 +24°C° 0 mm 2 m/S 752 mmHg 74%
    10:00 +24°C° 0 mm 3 m/S 752 mmHg 74%
    11:00 +25°C° 0 mm 3 m/S 751 mmHg 73%
    12:00 +25°C° 0 mm 3 m/S 751 mmHg 72%
    13:00 +25°C° 0 mm 3 m/S 751 mmHg 70%
    14:00 +25°C° 0 mm 3 m/S 750 mmHg 68%
    15:00 +26°C° 0 mm 3 m/S 749 mmHg 66%
    16:00 +25°C° 0.3 mm 2 m/S 749 mmHg 72%
    17:00 +24°C° 0.3 mm 2 m/S 750 mmHg 78%
    18:00 +23°C° 0.3 mm 1 m/S 750 mmHg 84%
    19:00 +22°C° 0.3 mm 1 m/S 750 mmHg 87%
    20:00 +21°C° 0.3 mm 1 m/S 750 mmHg 90%
    21:00 +20°C° 0.3 mm 1 m/S 750 mmHg 93%
    22:00 +20°C° 1.9 mm 1 m/S 750 mmHg 94%
    23:00 +20°C° 1.9 mm 1 m/S 750 mmHg 96%

    26 April, Freitag

    Zeit Temperatur Niederschläge Wind Luftdruck Luftfeuchtigkeit
    00:00 +20°C° 1.9 mm 1 m/S 750 mmHg 98%
    01:00 +19°C° 0.5 mm 1 m/S 749 mmHg 98%
    02:00 +19°C° 0.5 mm 1 m/S 749 mmHg 98%
    03:00 +17°C° 0.5 mm 0 m/S 749 mmHg 98%
    04:00 +19°C° 0.1 mm 1 m/S 749 mmHg 98%
    05:00 +19°C° 0.1 mm 1 m/S 749 mmHg 98%
    06:00 +19°C° 0.1 mm 1 m/S 750 mmHg 98%
    07:00 +20°C° 0.1 mm 1 m/S 750 mmHg 96%
    08:00 +20°C° 0.1 mm 2 m/S 750 mmHg 93%
    09:00 +21°C° 0.1 mm 2 m/S 751 mmHg 90%
    10:00 +24°C° 0.3 mm 3 m/S 750 mmHg 82%
    11:00 +25°C° 0.3 mm 3 m/S 750 mmHg 75%
    12:00 +27°C° 0.3 mm 3 m/S 750 mmHg 67%
    13:00 +27°C° 0.3 mm 3 m/S 750 mmHg 65%
    14:00 +27°C° 0.3 mm 3 m/S 749 mmHg 63%
    15:00 +28°C° 0.3 mm 3 m/S 749 mmHg 61%
    16:00 +27°C° 0.5 mm 3 m/S 749 mmHg 69%
    17:00 +25°C° 0.5 mm 2 m/S 750 mmHg 77%
    18:00 +24°C° 0.5 mm 2 m/S 750 mmHg 85%
    19:00 +23°C° 0 mm 2 m/S 750 mmHg 88%
    20:00 +20°C° 0 mm 2 m/S 751 mmHg 90%
    21:00 +19°C° 0 mm 2 m/S 751 mmHg 93%
    22:00 +19°C° 0 mm 2 m/S 751 mmHg 93%
    23:00 +18°C° 0 mm 2 m/S 751 mmHg 94%

    27 April, Samstag

    Zeit Temperatur Niederschläge Wind Luftdruck Luftfeuchtigkeit
    00:00 +18°C° 0 mm 2 m/S 750 mmHg 95%
    01:00 +17°C° 0 mm 2 m/S 750 mmHg 95%
    02:00 +17°C° 0 mm 2 m/S 750 mmHg 96%
    03:00 +16°C° 0 mm 2 m/S 750 mmHg 97%
    04:00 +16°C° 0 mm 2 m/S 750 mmHg 97%
    05:00 +16°C° 0 mm 2 m/S 750 mmHg 97%
    06:00 +16°C° 0 mm 1 m/S 751 mmHg 97%
    07:00 +19°C° 0 mm 1 m/S 751 mmHg 89%
    08:00 +22°C° 0 mm 1 m/S 751 mmHg 82%
    09:00 +24°C° 0 mm 2 m/S 751 mmHg 75%
    10:00 +26°C° 0 mm 2 m/S 751 mmHg 69%
    11:00 +27°C° 0 mm 2 m/S 750 mmHg 63%
    12:00 +29°C° 0 mm 2 m/S 750 mmHg 57%
    13:00 +29°C° 0 mm 2 m/S 750 mmHg 57%
    14:00 +29°C° 0 mm 2 m/S 749 mmHg 56%
    15:00 +30°C° 0 mm 2 m/S 748 mmHg 56%
    16:00 +28°C° 0 mm 2 m/S 748 mmHg 62%
    17:00 +27°C° 0 mm 1 m/S 748 mmHg 68%
    18:00 +26°C° 0 mm 1 m/S 748 mmHg 73%
    19:00 +25°C° 0 mm 1 m/S 749 mmHg 77%
    20:00 +23°C° 0 mm 1 m/S 749 mmHg 80%
    21:00 +22°C° 0 mm 1 m/S 750 mmHg 83%
    22:00 +22°C° 0 mm 1 m/S 750 mmHg 85%
    23:00 +21°C° 0 mm 1 m/S 750 mmHg 87%
    Mehr zeigen